AE5TC Weather Reports


time (UTC)temp
C
wind
direction
speed
KPH
gust
KPH
rain 1hr
cm
rain 24hr
cm
rain mn
cm
humidity
%
barometer
mb
20260507003948 23 281 0.0 0.0 0.00 0.00 0.00 98 1013.5
20260507003442 23 274 1.6 1.6 0.00 0.00 0.00 98 1013.4
20260507002937 23 346 0.0 1.6 0.00 0.00 0.00 97 1013.3
20260507002434 23 7 3.2 4.8 0.00 0.00 0.00 97 1013.3
20260507001931 23 296 3.2 3.2 0.00 0.00 0.00 97 1013.3
20260507001428 23 270 1.6 1.6 0.00 0.00 0.00 96 1013.1
20260507000926 23 7 6.4 6.4 0.00 0.00 0.00 96 1013.2
20260507000421 23 16 1.6 3.2 0.00 0.00 0.00 96 1013.2
20260506235916 24 20 3.2 3.2 0.00 0.00 0.00 95 1013.1
20260506235415 24 28 3.2 6.4 0.00 0.00 0.00 94 1013.1
20260506234909 24 279 1.6 3.2 0.00 0.00 0.00 94 1013.2
20260506234408 24 255 3.2 4.8 0.00 0.00 0.00 93 1013.2
20260506233905 25 45 6.4 9.7 0.00 0.00 0.00 93 1013.3
20260506233400 25 330 6.4 6.4 0.00 0.00 0.00 92 1013.3
20260506232858 25 95 6.4 6.4 0.00 0.00 0.00 91 1013.4
20260506232354 25 32 1.6 3.2 0.00 0.00 0.00 90 1013.3
20260506231850 25 274 4.8 6.4 0.00 0.00 0.00 90 1013.3
20260506231348 25 7 4.8 6.4 0.00 0.00 0.00 89 1013.6
20260506230845 25 177 3.2 4.8 0.00 0.00 0.00 89 1013.7
20260506230342 25 71 8.0 11.3 0.00 0.00 0.00 87 1013.5
20260506225838 26 184 1.6 1.6 0.00 0.00 0.00 86 1013.5
20260506225336 26 108 8.0 12.9 0.00 0.00 0.00 85 1013.9
20260506224832 26 240 1.6 3.2 0.00 0.00 0.00 83 1013.7
20260506224330 26 246 1.6 1.6 0.00 0.00 0.00 82 1013.7
20260506223826 26 116 4.8 6.4 0.00 0.00 0.00 83 1013.4
20260506223321 26 136 4.8 6.4 0.00 0.00 0.00 80 1013.9
20260506222819 26 214 3.2 3.2 0.00 0.00 0.00 80 1013.9
20260506222314 27 237 3.2 3.2 0.00 0.00 0.00 80 1013.9
20260506221807 26 201 3.2 4.8 0.00 0.00 0.00 81 1014.0
20260506221304 27 271 0.0 1.6 0.00 0.00 0.00 81 1014.0
20260506220802 27 170 3.2 4.8 0.00 0.00 0.00 80 1014.4
20260506220301 27 216 3.2 4.8 0.00 0.00 0.00 80 1014.3
20260506215758 27 167 4.8 4.8 0.00 0.00 0.00 82 1014.2
20260506215254 27 73 6.4 6.4 0.00 0.00 0.00 79 1014.5
20260506214750 27 222 4.8 4.8 0.00 0.00 0.00 78 1014.6
20260506214248 27 217 3.2 3.2 0.00 0.00 0.00 79 1014.3
20260506213746 27 72 3.2 3.2 0.00 0.00 0.00 81 1014.4
20260506213243 27 185 4.8 6.4 0.00 0.00 0.00 80 1014.5
20260506212740 27 230 3.2 4.8 0.00 0.00 0.00 81 1014.4
20260506212236 27 159 3.2 4.8 0.00 0.00 0.00 79 1014.5
20260506211725 28 197 3.2 3.2 0.00 0.00 0.00 78 1014.6
20260506211222 27 235 3.2 3.2 0.00 0.00 0.00 77 1014.5
20260506210713 27 143 3.2 4.8 0.00 0.00 0.00 77 1014.4
20260506210210 27 220 1.6 3.2 0.00 0.00 0.00 80 1014.5
20260506205708 27 203 4.8 4.8 0.00 0.00 0.00 80 1014.5
20260506205208 27 221 3.2 3.2 0.00 0.00 0.00 80 1014.6
20260506204705 27 226 1.6 3.2 0.00 0.00 0.00 81 1014.5
20260506204202 28 232 4.8 6.4 0.00 0.00 0.00 78 1014.6
20260506203700 27 129 3.2 4.8 0.00 0.00 0.00 81 1014.7
20260506203157 28 183 3.2 4.8 0.00 0.00 0.00 77 1014.9
20260506202655 28 248 1.6 1.6 0.00 0.00 0.00 78 1014.8
20260506202150 28 237 3.2 3.2 0.00 0.00 0.00 76 1015.1
20260506201648 27 217 3.2 3.2 0.00 0.00 0.00 79 1015.1
20260506201144 28 130 1.6 3.2 0.00 0.00 0.00 77 1015.2
20260506200641 28 195 4.8 4.8 0.00 0.00 0.00 75 1015.1
20260506200138 27 224 4.8 6.4 0.00 0.00 0.00 79 1015.5
20260506195634 28 139 4.8 4.8 0.00 0.00 0.00 79 1015.6
20260506195131 28 223 1.6 1.6 0.00 0.00 0.00 79 1015.4
20260506194629 28 212 3.2 4.8 0.00 0.00 0.00 77 1015.4
20260506194124 28 313 3.2 6.4 0.00 0.00 0.00 78 1015.7
20260506193623 28 207 3.2 4.8 0.00 0.00 0.00 77 1015.8
20260506193119 28 238 0.0 1.6 0.00 0.00 0.00 78 1015.7
20260506192616 27 202 4.8 6.4 0.00 0.00 0.00 78 1015.8
20260506192112 28 154 6.4 6.4 0.00 0.00 0.00 77 1015.8
20260506191609 27 219 1.6 3.2 0.00 0.00 0.00 77 1015.9
20260506191104 28 183 6.4 6.4 0.00 0.00 0.00 77 1015.8
20260506190557 28 297 1.6 3.2 0.00 0.00 0.00 75 1015.8
20260506190054 28 286 1.6 1.6 0.00 0.00 0.00 79 1015.9
20260506185551 28 129 3.2 3.2 0.00 0.00 0.00 76 1016.0
20260506185047 28 238 1.6 1.6 0.00 0.00 0.00 78 1016.2
20260506184544 28 236 3.2 4.8 0.00 0.00 0.00 77 1016.0
20260506184042 28 201 1.6 3.2 0.00 0.00 0.00 77 1016.2
20260506183537 28 161 4.8 9.7 0.00 0.00 0.00 77 1015.9
20260506183034 27 238 3.2 4.8 0.00 0.00 0.00 80 1016.0
20260506182532 28 147 3.2 9.7 0.00 0.00 0.00 80 1016.3
20260506182029 28 231 3.2 4.8 0.00 0.00 0.00 78 1016.2
20260506181526 28 218 3.2 3.2 0.00 0.00 0.00 79 1016.0
20260506181023 27 182 3.2 4.8 0.00 0.00 0.00 78 1016.4
20260506180520 27 49 6.4 9.7 0.00 0.00 0.00 78 1016.3
20260506180016 27 202 3.2 4.8 0.00 0.00 0.00 79 1016.3
20260506175513 27 151 3.2 4.8 0.00 0.00 0.00 76 1016.3
20260506175009 27 257 1.6 1.6 0.00 0.00 0.00 79 1016.1
20260506174508 27 21 4.8 6.4 0.00 0.00 0.00 83 1016.3
20260506174003 26 103 8.0 11.3 0.00 0.00 0.00 81 1016.4
20260506173502 27 253 1.6 3.2 0.00 0.00 0.00 82 1016.2
20260506172958 27 292 3.2 3.2 0.00 0.00 0.00 80 1016.3
20260506172456 27 331 1.6 1.6 0.00 0.00 0.00 82 1016.4
20260506171951 26 338 1.6 3.2 0.00 0.00 0.00 82 1016.2
20260506171449 27 133 4.8 6.4 0.00 0.00 0.00 81 1016.3
20260506170947 27 238 4.8 6.4 0.00 0.00 0.00 81 1016.1
20260506170443 27 215 3.2 3.2 0.00 0.00 0.00 82 1016.2
20260506165937 26 275 1.6 3.2 0.00 0.00 0.00 84 1016.1
20260506165434 26 299 1.6 1.6 0.00 0.00 0.00 84 1016.2
20260506164930 26 319 3.2 4.8 0.00 0.00 0.00 83 1016.1
20260506164427 26 286 1.6 1.6 0.00 0.00 0.00 83 1016.0
20260506163919 26 147 4.8 4.8 0.00 0.00 0.00 84 1015.8
20260506163414 26 275 1.6 1.6 0.00 0.00 0.00 82 1015.7
20260506162908 26 211 3.2 3.2 0.00 0.00 0.00 83 1016.0
20260506162406 27 196 6.4 6.4 0.00 0.00 0.00 79 1015.8
20260506161858 26 170 4.8 4.8 0.00 0.00 0.00 83 1015.9
20260506161355 26 139 6.4 9.7 0.00 0.00 0.00 82 1015.9
20260506160847 26 186 3.2 4.8 0.00 0.00 0.00 84 1015.9
20260506160344 26 8 4.8 4.8 0.00 0.00 0.00 85 1016.2
20260506155843 26 114 4.8 4.8 0.00 0.00 0.00 82 1015.8
20260506155338 27 164 1.6 3.2 0.00 0.00 0.00 82 1016.0
20260506153450 26 158 6.4 9.7 0.00 0.00 0.00 83 1015.8
20260506152948 26 358 6.4 9.7 0.00 0.00 0.00 83 1015.8
20260506152445 26 75 4.8 9.7 0.00 0.00 0.00 85 1015.8
20260506151943 27 55 3.2 4.8 0.00 0.00 0.00 83 1016.0
20260506151440 26 18 8.0 9.7 0.00 0.00 0.00 83 1015.7
20260506150938 26 165 3.2 4.8 0.00 0.00 0.00 84 1015.4
20260506150433 26 28 4.8 4.8 0.00 0.00 0.00 84 1015.5
20260506145931 26 206 4.8 9.7 0.00 0.00 0.00 84 1015.5
20260506145427 26 82 3.2 4.8 0.00 0.00 0.00 83 1015.4
20260506144925 26 329 1.6 3.2 0.00 0.00 0.00 85 1015.4
20260506144421 25 31 6.4 11.3 0.00 0.00 0.00 87 1015.3
20260506143920 26 342 1.6 3.2 0.00 0.00 0.00 85 1015.4
20260506143416 26 46 6.4 6.4 0.00 0.00 0.00 85 1015.4
20260506142914 26 220 3.2 3.2 0.00 0.00 0.00 84 1015.1
20260506142413 25 237 6.4 9.7 0.00 0.00 0.00 86 1015.3
20260506141910 25 341 3.2 3.2 0.00 0.00 0.00 89 1015.4
20260506141408 25 343 3.2 3.2 0.00 0.00 0.00 90 1015.0
20260506140906 25 58 6.4 11.3 0.00 0.00 0.00 88 1015.0
20260506140402 25 276 1.6 3.2 0.00 0.00 0.00 91 1015.1
20260506135900 23 308 4.8 6.4 0.00 0.00 0.00 92 1014.9
20260506135356 24 121 4.8 4.8 0.00 0.00 0.00 91 1015.0
20260506134853 24 359 3.2 4.8 0.00 0.00 0.00 92 1014.9
20260506134349 25 351 6.4 11.3 0.00 0.00 0.00 92 1014.8
20260506133846 25 335 6.4 6.4 0.00 0.00 0.00 91 1014.8
20260506133342 24 12 6.4 11.3 0.00 0.00 0.00 93 1014.7
20260506132839 23 321 3.2 4.8 0.00 0.00 0.00 95 1014.7
20260506132336 24 349 3.2 4.8 0.00 0.00 0.00 95 1014.6
20260506131835 24 341 3.2 3.2 0.00 0.00 0.00 95 1014.5
20260506131331 24 316 3.2 3.2 0.00 0.00 0.00 95 1014.4
20260506130828 23 304 3.2 3.2 0.00 0.00 0.00 96 1014.2
20260506130324 23 222 3.2 4.8 0.00 0.00 0.00 97 1014.3
20260506125822 23 91 6.4 6.4 0.00 0.00 0.00 98 1014.2
20260506125320 23 38 3.2 4.8 0.00 0.00 0.00 98 1013.9
20260506124819 22 288 1.6 1.6 0.00 0.00 0.00 99 1014.0
20260506124315 22 324 3.2 4.8 0.00 0.00 0.00 99 1013.9
20260506123813 22 272 0.0 1.6 0.00 0.00 0.00 99 1013.9
20260506123311 22 279 0.0 1.6 0.00 0.00 0.00 99 1013.9
20260506122808 22 20 1.6 3.2 0.00 0.00 0.00 99 1014.0
20260506122306 21 275 0.0 0.0 0.00 0.00 0.00 99 1013.8
20260506121803 21 341 1.6 3.2 0.00 0.00 0.00 99 1013.9
20260506121259 21 257 3.2 4.8 0.00 0.00 0.00 99 1013.9
20260506120757 21 270 0.0 0.0 0.00 0.00 0.00 99 1013.8
20260506120255 21 305 1.6 1.6 0.00 0.00 0.00 99 1013.6
20260506115752 21 279 0.0 1.6 0.00 0.00 0.00 99 1013.7
20260506115250 20 250 1.6 1.6 0.00 0.00 0.00 99 1013.6
20260506114748 19 276 0.0 0.0 0.00 0.00 0.00 99 1013.5
20260506114245 18 273 0.0 0.0 0.00 0.00 0.00 99 1013.5
20260506113743 17 274 0.0 0.0 0.00 0.00 0.00 99 1013.3
20260506113240 17 273 0.0 0.0 0.00 0.00 0.00 99 1013.3
20260506112736 17 272 0.0 0.0 0.00 0.00 0.00 99 1013.2
20260506112234 17 272 0.0 0.0 0.00 0.00 0.00 99 1013.3
20260506111732 17 271 0.0 0.0 0.00 0.00 0.00 99 1013.3
20260506111230 17 270 0.0 0.0 0.00 0.00 0.00 99 1013.2
20260506110726 16 270 0.0 0.0 0.00 0.00 0.00 99 1013.1
20260506110224 16 270 0.0 0.0 0.00 0.00 0.00 99 1013.3
20260506105720 16 270 0.0 0.0 0.00 0.00 0.00 99 1013.1
20260506105217 16 270 0.0 0.0 0.00 0.00 0.00 99 1013.1
20260506104715 16 270 0.0 0.0 0.00 0.00 0.00 99 1013.0
20260506104213 16 270 0.0 0.0 0.00 0.00 0.00 99 1013.0
20260506103709 16 270 0.0 0.0 0.00 0.00 0.00 99 1013.0
20260506103206 16 270 0.0 0.0 0.00 0.00 0.00 99 1013.2
20260506102705 16 270 0.0 0.0 0.00 0.00 0.00 99 1013.0
20260506102202 16 270 0.0 0.0 0.00 0.00 0.00 99 1012.9
20260506101659 16 270 0.0 0.0 0.00 0.00 0.00 99 1013.1
20260506101155 16 270 0.0 0.0 0.00 0.00 0.00 99 1013.1
20260506100654 16 270 0.0 0.0 0.00 0.00 0.00 99 1013.0
20260506100151 16 270 0.0 0.0 0.00 0.00 0.00 99 1013.2
20260506095650 16 270 0.0 0.0 0.00 0.00 0.00 99 1013.0
20260506095146 16 270 0.0 0.0 0.00 0.00 0.00 99 1013.1
20260506094643 16 270 0.0 0.0 0.00 0.00 0.00 99 1013.1
20260506094141 16 271 0.0 0.0 0.00 0.00 0.00 99 1013.1
20260506093640 16 270 0.0 0.0 0.00 0.00 0.00 99 1013.0
20260506093137 16 270 0.0 0.0 0.00 0.00 0.00 99 1013.0
20260506092634 17 270 0.0 0.0 0.00 0.00 0.00 99 1012.8
20260506092131 16 270 0.0 0.0 0.00 0.00 0.00 99 1012.8
20260506091629 16 270 0.0 0.0 0.00 0.00 0.00 99 1012.8
20260506091126 16 271 0.0 0.0 0.00 0.00 0.00 99 1012.8
20260506090625 17 271 0.0 0.0 0.00 0.00 0.00 99 1013.0
20260506090120 16 271 0.0 0.0 0.00 0.00 0.00 99 1013.0
20260506085617 17 271 0.0 0.0 0.00 0.00 0.00 99 1013.0
20260506085114 16 271 0.0 0.0 0.00 0.00 0.00 99 1013.1
20260506084611 17 271 0.0 0.0 0.00 0.00 0.00 99 1012.9
20260506084107 17 271 0.0 0.0 0.00 0.00 0.00 99 1013.2
20260506083604 17 271 0.0 0.0 0.00 0.00 0.00 99 1013.4
20260506083102 17 271 0.0 0.0 0.00 0.00 0.00 99 1013.2
20260506082558 17 271 0.0 0.0 0.00 0.00 0.00 99 1013.4
20260506082054 17 271 0.0 0.0 0.00 0.00 0.00 99 1013.6
20260506081552 17 271 0.0 0.0 0.00 0.00 0.00 99 1013.5
20260506081049 17 271 0.0 0.0 0.00 0.00 0.00 99 1013.6
20260506080547 17 271 0.0 0.0 0.00 0.00 0.00 99 1013.5
20260506073027 17 272 0.0 0.0 0.00 0.00 0.00 99 1013.3
20260506072525 17 272 0.0 0.0 0.00 0.00 0.00 99 1013.4
20260506072022 17 272 0.0 0.0 0.00 0.00 0.00 99 1013.3
20260506071520 17 272 0.0 0.0 0.00 0.00 0.00 99 1013.2
20260506071017 17 272 0.0 0.0 0.00 0.00 0.00 99 1013.2
20260506070514 17 272 0.0 0.0 0.00 0.00 0.00 99 1013.4
20260506062451 18 272 0.0 0.0 0.00 0.00 0.00 99 1013.8
20260506061947 18 272 0.0 0.0 0.00 0.00 0.00 99 1013.4
20260506061444 18 272 0.0 0.0 0.00 0.00 0.00 99 1013.7
20260506060942 18 272 0.0 0.0 0.00 0.00 0.00 99 1013.7
20260506060440 17 272 0.0 0.0 0.00 0.00 0.00 99 1013.7
20260506051412 18 271 0.0 0.0 0.00 0.00 0.00 99 1014.2
20260506050909 18 271 0.0 0.0 0.00 0.00 0.00 99 1014.1
20260506050406 18 271 0.0 0.0 0.00 0.00 0.00 99 1014.1
20260506044857 18 271 0.0 0.0 0.00 0.00 0.00 99 1014.6
20260506044355 18 271 0.0 0.0 0.00 0.00 0.00 99 1014.6
20260506043851 18 271 0.0 0.0 0.00 0.00 0.00 99 1014.4
20260506043349 18 271 0.0 0.0 0.00 0.00 0.00 99 1014.6
20260506042847 18 271 0.0 0.0 0.00 0.00 0.00 99 1014.7
20260506042346 18 271 0.0 0.0 0.00 0.00 0.00 99 1014.7
20260506041844 18 271 0.0 0.0 0.00 0.00 0.00 99 1014.7
20260506041341 18 271 0.0 0.0 0.00 0.00 0.00 99 1015.0
20260506040837 18 271 0.0 0.0 0.00 0.00 0.00 99 1014.6
20260506040335 19 271 0.0 0.0 0.00 0.00 0.00 99 1014.7
20260506035831 18 270 0.0 0.0 0.00 0.00 0.00 99 1014.7
20260506035329 18 270 0.0 0.0 0.00 0.00 0.00 99 1014.7
20260506034826 19 270 0.0 0.0 0.00 0.00 0.00 99 1014.7
20260506034323 19 270 0.0 0.0 0.00 0.00 0.00 99 1014.7
20260506033820 19 270 0.0 0.0 0.00 0.00 0.00 99 1014.9
20260506033317 19 269 0.0 0.0 0.00 0.00 0.00 99 1014.7
20260506032814 19 271 0.0 0.0 0.00 0.00 0.00 99 1014.6
20260506032311 19 272 0.0 0.0 0.00 0.00 0.00 99 1014.8
20260506031807 19 263 0.0 0.0 0.00 0.00 0.00 99 1014.7
20260506031305 19 263 0.0 0.0 0.00 0.00 0.00 99 1014.6
20260506030802 20 263 0.0 0.0 0.00 0.00 0.00 99 1014.6
20260506030300 19 263 0.0 0.0 0.00 0.00 0.00 99 1014.5
20260506025757 19 263 0.0 0.0 0.00 0.00 0.00 99 1014.4
20260506025253 20 264 0.0 0.0 0.00 0.00 0.00 99 1014.5
20260506024750 20 285 0.0 0.0 0.00 0.00 0.00 99 1014.4
20260506024247 20 285 0.0 0.0 0.00 0.00 0.00 99 1014.4
20260506023743 20 285 0.0 0.0 0.00 0.00 0.00 99 1014.5
20260506023240 20 285 0.0 0.0 0.00 0.00 0.00 99 1014.7
20260506022737 20 285 0.0 0.0 0.00 0.00 0.00 99 1014.5
20260506022235 20 285 0.0 0.0 0.00 0.00 0.00 99 1014.6
20260506021733 20 285 0.0 0.0 0.00 0.00 0.00 99 1014.5
20260506021229 20 285 0.0 0.0 0.00 0.00 0.00 99 1014.7
20260506020726 20 285 0.0 0.0 0.00 0.00 0.00 99 1014.6
20260506020224 20 285 0.0 0.0 0.00 0.00 0.00 99 1014.4
20260506015721 20 285 0.0 0.0 0.00 0.00 0.00 99 1014.3
20260506015219 21 285 0.0 0.0 0.00 0.00 0.00 99 1014.4
20260506014716 21 285 0.0 0.0 0.00 0.00 0.00 99 1014.1
20260506014212 21 285 0.0 0.0 0.00 0.00 0.00 99 1014.0
20260506013709 21 285 0.0 0.0 0.00 0.00 0.00 99 1014.1
20260506013206 21 285 0.0 0.0 0.00 0.00 0.00 99 1014.3
20260506012702 21 284 0.0 0.0 0.00 0.00 0.00 99 1014.2
20260506012159 21 311 1.6 1.6 0.00 0.00 0.00 99 1014.2
20260506011657 21 294 1.6 3.2 0.00 0.00 0.00 99 1014.1
20260506011153 21 285 0.0 0.0 0.00 0.00 0.00 99 1014.1
20260506010652 21 296 1.6 1.6 0.00 0.00 0.00 99 1014.2
20260506010148 21 257 0.0 0.0 0.00 0.00 0.00 99 1014.1
20260506005645 21 291 0.0 1.6 0.00 0.00 0.00 99 1014.2
20260506005142 21 295 1.6 1.6 0.00 0.00 0.00 99 1014.0
20260506004638 21 268 0.0 0.0 0.00 0.00 0.00 98 1013.9